Find Local Weather

World > North America > United States > Wisconsin

Sheboygan, Wisconsin Regional Weather

Lat: 43.75N, Lon: 87.72W
Wx Zone: WIZ052
Warning FLW WEATHER ALERT - (More Info. Click Here) Warning
Feedback
Expires:201812111600;;634645
ASUS43 KGRB 111511
RWRGRB

NORTH-CENTRAL AND NORTHEAST WISCONSIN REGIONAL WEATHER ROUNDUP
NATIONAL WEATHER SERVICE GREEN BAY WI
900 AM CST TUE DEC 11 2018


WIZ022-050-052-111600-
EAST CENTRAL WISCONSIN
  
CITY           SKY/WX    TMP DP  RH WIND       PRES   REMARKS
EPHRAIM        CLOUDY    27  22  83 NW9       29.98R                  
WASHINGTON ISL CLOUDY    28  23  82 NW7       29.98R                  
STURGEON BAY   CLOUDY    27  23  85 NW9       30.01R                  
MANITOWOC      PTSUNNY   25  21  86 NW9       30.03S                  
SHEBOYGAN      CLOUDY    23  20  88 NW8       30.02R FOG              
$$


SKY/WX - Weather  TMP - Temperature  DP - Dew Point  RH - Relative Humidity
WIND - Wind Direction/Speed PRES - Barometric Pressure